Location: Lane
(33.5226°N, 79.8788°W)
Time: 20:04:45
(UTC+00:00)

Explorer 11/Cluster Stage 4 - Pass Details

Date: 04 October 2022
Orbit: 466 x 1247 km, 28.8° (Epoch: 01 December)

Event Time Altitude Azimuth Distance (km) Brightness Sun altitude
Rises 20:42:28 0° 272° (W) 3,922 11.1 26.7°
Reaches altitude 10° 20:45:44 10° 263° (W) 2,846 10.9 26.1°
Maximum altitude 20:51:46 33° 203° (SSW) 1,489 9.0 24.9°
Drops below altitude 10° 20:56:46 10° 141° (SE) 2,340 8.9 24.0°
Sets 20:59:13 0° 131° (SE) 3,139 9.4 23.5°
